Theta_e
314 313 312 311 312 314 315 316 317 317 318 319 321 321 320 319 319 319 319 319 319 318 318 317 316 317 317 317 318 318 319 319 318 318 317 317 318 318 319 320 320 319 319 319 316 316 317 315 313 316 317 315 315 314 311 311 312 313 313 313 312 312 314 315 314 313 312 310 308 306 305 308 310 311 311 313 314 315 316 316 314 314 315 314 314 317 317
312 313 314 313 312 312 313 314 315 316 316 318 319 319 319 319 318 318 318 319 319 318 318 317 315 316 317 317 318 318 319 319 318 318 318 318 319 319 320 320 320 321 320 318 316 316 319 318 315 317 318 315 312 311 309 310 313 314 314 314 313 314 316 316 316 316 315 313 312 311 308 308 310 312 311 311 313 314 314 313 312 314 316 316 316 318 316
309 311 313 313 313 312 312 312 313 316 317 317 318 319 318 318 317 316 317 318 318 318 318 317 315 315 316 317 318 318 318 318 318 318 318 319 319 319 320 319 319 321 321 319 319 318 320 322 318 317 318 315 310 309 309 310 313 312 313 314 314 316 317 316 316 318 319 318 318 316 313 310 310 312 312 311 312 313 313 313 314 316 317 316 317 318 315
307 309 311 312 312 312 312 312 312 314 316 315 317 318 317 317 316 315 316 317 317 317 317 316 316 316 316 317 318 318 318 318 317 318 319 319 318 319 320 319 318 320 320 320 320 318 319 322 320 317 318 316 310 307 307 309 310 311 311 312 312 315 317 316 317 319 320 320 318 317 315 312 312 312 312 311 312 312 313 314 315 315 315 315 316 317 315
306 307 308 310 310 310 311 311 311 313 313 313 316 317 316 316 315 314 315 316 316 316 316 316 317 316 316 317 317 318 318 318 317 318 319 318 317 318 319 318 319 320 319 320 321 319 318 319 319 318 317 314 309 307 307 308 309 310 311 311 312 314 315 316 317 318 319 318 316 315 315 315 314 313 312 311 311 312 313 314 315 315 315 316 317 316 316
306 306 306 308 310 310 310 310 310 312 312 313 315 316 315 315 314 312 313 315 315 315 316 316 317 317 316 317 317 317 318 319 318 318 317 317 318 318 318 318 319 320 319 320 321 320 319 318 318 318 316 314 311 309 309 308 308 310 311 311 312 314 315 316 317 316 317 317 315 314 316 317 316 314 314 312 311 311 312 313 314 315 315 317 317 316 316
306 306 306 307 308 310 310 311 310 311 312 313 314 315 313 312 312 312 312 313 312 313 314 316 317 317 317 317 317 317 318 318 318 317 317 317 317 318 319 319 319 319 319 320 321 319 320 319 318 317 316 315 313 313 313 310 307 310 313 311 310 314 316 317 316 316 316 316 314 313 314 317 316 315 314 313 311 311 312 312 313 314 315 315 315 314 315
306 306 306 306 308 309 310 311 311 311 312 313 313 313 311 310 311 311 311 311 309 309 312 315 316 317 316 316 316 315 316 317 317 316 317 317 317 317 319 319 319 319 318 320 320 319 320 321 319 317 316 315 314 315 315 312 307 309 313 312 310 313 316 315 315 315 316 315 314 314 315 316 317 315 314 313 311 310 311 311 312 313 313 313 312 312 313
307 306 306 306 307 308 309 309 310 311 312 312 312 311 309 309 309 310 311 310 308 308 311 313 316 317 316 316 315 314 314 315 316 315 315 316 316 316 318 319 319 318 318 318 320 319 319 320 318 316 316 316 315 315 314 312 310 310 311 312 311 312 313 313 313 316 317 314 313 314 314 314 315 315 314 312 309 310 310 310 311 312 312 312 312 312 313
306 306 306 306 306 307 308 308 309 310 311 311 311 309 308 308 308 309 310 309 306 306 308 311 313 314 314 314 314 313 313 313 315 315 312 311 312 313 315 317 318 318 318 317 318 317 317 317 315 314 315 314 313 313 312 311 312 311 310 310 311 311 312 312 313 318 316 310 310 312 312 314 316 315 315 313 311 311 311 310 311 311 311 313 314 313 313
305 306 306 305 305 306 307 307 308 309 310 310 310 309 307 307 307 307 308 308 304 303 306 308 309 309 309 311 312 312 313 313 313 314 312 309 309 309 312 315 317 317 315 314 314 315 314 313 312 312 312 311 310 310 310 310 311 311 310 310 310 310 312 312 314 317 313 306 307 311 314 318 315 308 309 313 313 313 313 312 312 312 312 312 312 312 312
305 306 306 305 305 305 305 306 307 307 309 309 309 308 307 306 306 305 305 307 305 303 305 307 306 305 305 307 308 308 309 309 308 309 309 308 307 308 309 313 315 313 310 309 311 312 311 310 310 309 308 307 306 307 308 310 309 308 309 310 310 310 311 311 312 313 308 304 307 314 317 316 308 300 300 305 310 313 314 313 312 312 310 310 309 309 310
304 305 305 305 304 304 304 305 306 306 307 308 308 308 307 306 306 305 304 305 305 303 304 305 303 303 304 304 304 304 304 304 303 304 305 305 305 306 306 308 310 308 307 308 309 310 309 307 307 308 306 305 305 305 306 306 305 305 307 309 310 310 311 311 310 308 305 306 310 315 316 311 304 298 297 300 305 309 310 311 311 310 308 308 309 309 307
303 303 304 305 304 303 302 303 304 305 306 307 307 307 307 305 306 305 304 306 305 303 303 304 303 303 304 303 303 303 302 302 303 303 303 303 304 304 304 305 306 306 307 307 307 307 307 307 307 308 307 307 308 308 305 302 300 301 304 305 306 309 311 310 310 308 307 308 310 312 313 311 307 303 300 302 306 307 309 311 311 308 307 307 308 308 305
301 301 303 304 304 303 302 302 302 303 304 306 306 307 306 305 305 305 304 305 304 302 302 304 304 303 303 303 303 304 303 303 304 302 301 301 302 302 304 304 305 305 306 305 305 305 307 307 308 309 308 309 310 309 306 303 299 297 299 300 303 306 309 310 312 310 308 309 310 310 312 313 312 308 303 300 303 304 306 309 309 306 304 305 307 308 305
299 300 301 303 303 303 303 302 302 302 302 304 304 305 306 305 304 304 303 303 304 304 303 303 303 303 302 302 302 304 304 304 304 303 302 301 300 301 303 304 305 305 305 304 304 305 307 308 309 309 308 308 310 309 306 305 302 298 297 300 302 304 305 307 310 311 309 309 312 312 312 312 311 306 300 296 299 302 304 307 308 304 300 301 305 306 304
298 298 299 300 301 302 302 302 302 301 302 302 302 303 304 305 304 304 303 303 303 303 302 302 303 302 301 302 301 302 303 303 303 304 304 302 299 299 301 303 304 304 304 304 305 306 308 307 307 308 308 306 308 309 306 305 305 301 300 302 303 304 305 306 309 311 310 310 311 311 311 310 306 301 296 295 298 301 304 308 308 301 297 298 303 304 303
298 298 298 298 300 301 302 302 302 302 301 301 301 302 303 304 304 303 303 303 302 300 300 301 302 302 302 302 302 302 302 302 303 303 302 300 299 299 300 301 302 303 303 304 306 307 308 308 306 308 308 304 305 308 307 306 307 304 302 303 303 303 304 305 307 310 310 311 312 311 311 309 303 298 295 295 297 301 306 308 304 298 296 298 301 302 301
298 298 298 298 299 300 301 302 302 302 302 301 300 301 301 302 302 302 302 302 301 300 300 301 301 301 301 301 301 301 301 302 304 303 302 301 300 300 301 301 302 302 301 303 306 307 307 307 306 307 308 304 303 306 308 307 306 303 302 304 305 304 304 304 306 308 309 310 310 311 311 307 300 296 294 295 300 304 305 302 298 297 298 298 299 299 299
297 298 298 298 299 300 301 302 301 302 302 301 300 300 301 301 301 301 301 301 300 299 299 299 300 300 300 300 300 300 300 300 302 303 302 302 301 301 303 303 302 301 301 303 306 306 307 308 306 305 307 305 304 305 306 304 301 300 303 306 306 305 306 305 306 307 307 308 308 311 311 303 296 295 296 297 301 304 301 297 296 297 298 298 298 298 297
297 298 298 298 298 299 300 301 301 301 301 301 300 300 300 300 300 300 300 300 299 298 298 299 299 299 299 299 299 299 300 300 301 302 302 301 301 302 304 304 302 301 302 303 305 304 305 305 303 302 304 304 303 304 305 303 301 298 299 302 304 306 307 306 307 307 308 308 309 308 306 299 296 298 300 299 300 301 299 297 296 296 297 298 298 297 297
296 297 297 298 298 298 298 300 301 301 301 301 300 300 300 301 300 300 300 299 299 299 298 298 298 298 298 298 297 298 298 298 300 301 301 300 301 301 301 301 301 302 301 302 304 303 301 301 301 301 302 301 301 302 302 304 304 299 296 299 304 305 304 304 305 306 305 305 304 301 298 297 297 298 299 299 299 298 298 298 297 296 297 297 297 297 297
296 296 297 297 298 298 298 299 300 301 301 301 301 300 301 301 301 300 300 299 298 298 298 298 298 297 297 298 297 297 297 297 298 299 300 301 301 300 299 299 301 301 300 300 302 302 300 300 300 301 302 301 301 300 299 300 302 299 297 300 300 297 296 299 301 302 299 298 297 296 295 296 297 297 297 297 298 298 297 297 297 297 297 297 296 296 296
295 296 296 297 297 298 298 298 299 301 301 301 301 301 301 302 301 301 300 299 298 297 297 297 297 297 298 298 298 298 297 297 297 297 298 300 300 299 299 299 299 299 299 299 300 300 298 298 297 299 302 302 300 301 301 301 299 297 298 300 297 293 293 296 298 300 300 298 296 294 295 295 295 296 296 297 297 297 297 297 296 296 296 296 296 296 295
295 295 295 296 297 298 298 298 298 300 301 301 301 301 301 301 301 301 301 299 298 298 298 297 296 297 298 298 298 298 297 297 296 296 296 297 298 299 299 299 298 299 298 298 299 298 297 297 296 297 301 302 300 300 302 302 300 298 298 300 299 296 295 296 296 297 297 296 293 291 292 294 294 295 296 297 297 297 296 296 296 296 296 295 295 295 295
294 295 295 296 296 297 298 298 298 299 299 300 300 301 301 301 301 301 301 299 298 298 298 297 297 297 298 297 297 297 297 296 296 296 295 296 296 297 298 298 298 298 298 297 298 297 295 295 296 298 300 301 300 299 299 299 298 297 298 298 297 295 295 295 295 295 293 292 291 291 292 293 294 295 297 298 298 297 296 296 296 296 296 295 295 295 295
294 295 295 295 296 297 297 297 298 298 298 299 300 300 301 301 301 301 301 300 299 299 298 297 297 297 297 297 297 297 296 296 296 296 295 295 295 296 296 296 296 297 296 296 297 295 293 293 295 296 296 295 295 295 294 294 295 296 297 295 294 295 296 294 294 295 295 294 293 292 294 295 295 295 297 297 297 296 296 296 296 296 296 295 295 295 295
293 294 294 295 295 296 297 297 298 298 298 298 299 299 300 300 300 300 301 301 300 299 297 297 297 296 296 296 296 296 296 296 296 295 295 295 295 295 295 295 295 295 296 296 295 294 294 295 295 294 292 293 294 294 292 292 293 295 296 295 293 295 296 295 295 297 297 295 294 294 295 296 295 295 296 296 295 296 296 295 295 295 295 295 295 295 294
292 293 294 295 295 295 296 297 297 298 298 298 298 299 299 299 299 300 300 301 300 299 297 295 296 296 295 295 295 295 296 296 295 295 295 295 295 294 294 295 295 294 295 296 295 294 294 295 294 293 293 295 296 296 294 293 294 296 296 295 294 295 295 295 295 295 294 294 295 295 294 295 294 294 295 294 294 295 295 294 295 295 294 295 294 294 294
291 293 294 294 295 295 296 297 297 297 297 298 298 298 298 298 299 299 300 300 300 299 297 295 296 296 295 295 295 295 295 295 295 295 295 294 294 294 294 294 294 294 294 294 294 294 294 293 292 293 294 295 295 295 294 293 294 296 295 294 294 294 294 294 295 294 294 295 295 294 294 294 294 294 294 294 294 294 294 294 294 294 294 294 294 294 294
291 292 293 294 294 295 295 296 297 297 297 298 298 298 297 298 298 299 299 300 300 299 297 296 296 296 295 295 295 295 295 295 295 294 294 294 294 294 294 294 294 294 293 293 293 293 294 293 292 292 293 293 293 294 294 293 294 295 294 294 294 294 293 293 294 294 294 294 294 294 294 294 293 293 293 293 293 293 293 293 293 293 293 293 293 293 293
290 291 293 293 294 295 295 296 296 297 297 298 298 298 297 298 299 299 299 299 299 298 297 296 296 296 296 295 295 295 295 295 294 294 294 294 294 294 294 293 293 293 293 293 293 293 292 292 292 292 293 293 293 294 293 293 295 295 294 293 294 294 293 293 294 293 293 294 293 293 293 293 293 293 293 293 293 293 293 293 293 293 293 293 293 293 293
290 291 292 293 294 294 295 295 296 296 297 297 297 298 298 298 298 299 299 299 298 297 297 296 296 296 297 295 294 294 294 294 294 293 293 293 293 293 293 292 292 293 293 293 293 292 292 292 292 292 293 293 293 293 293 293 294 294 293 293 293 293 293 293 293 293 293 293 293 293 293 293 293 293 294 294 293 293 293 293 293 293 293 293 293 293 293
290 290 291 292 293 294 295 295 295 296 297 297 298 298 298 298 298 298 298 298 297 297 296 296 296 296 295 294 293 294 294 294 293 293 293 293 293 292 292 292 292 292 293 293 293 292 291 291 292 293 292 291 291 292 293 294 294 294 293 293 293 293 292 292 292 292 293 293 293 293 293 293 293 293 293 293 293 293 293 293 293 293 293 292 293 293 293
291 290 291 291 292 293 294 295 295 296 297 297 298 298 297 297 297 298 298 298 297 296 296 296 296 295 294 293 293 294 294 294 294 294 294 293 293 292 292 291 291 292 293 293 292 292 292 292 292 292 292 292 292 292 293 293 293 293 293 293 293 292 292 291 292 293 292 292 292 293 293 293 293 293 293 293 293 293 293 293 292 292 292 292 293 293 293
291 290 290 291 291 292 294 294 295 296 297 297 298 297 297 297 297 297 298 298 296 296 296 296 296 296 295 295 294 293 293 293 293 293 293 292 292 292 292 292 292 293 293 292 292 292 292 292 292 292 292 292 292 293 293 293 293 293 293 293 293 292 292 292 292 292 292 292 292 292 292 292 292 293 293 293 293 293 292 292 292 292 292 292 293 293 292
291 291 291 291 291 293 294 294 295 296 296 297 297 297 297 297 296 296 297 296 295 295 296 296 296 296 295 295 293 292 293 294 293 293 293 293 292 293 293 293 293 294 293 292 292 292 293 293 292 292 293 293 293 293 293 293 293 293 293 293 293 292 292 292 292 292 292 292 292 292 292 292 292 293 293 293 293 293 293 293 292 292 292 293 293 293 292
291 291 292 292 293 294 295 295 295 295 296 297 297 296 296 296 295 295 295 295 295 295 296 297 295 293 293 294 294 293 294 294 293 293 294 293 293 293 293 293 294 294 293 292 293 293 293 292 292 292 293 294 294 293 293 293 293 293 293 293 293 293 292 292 292 292 292 291 292 292 292 292 292 293 293 293 293 293 293 293 293 292 292 292 292 292 292
291 292 292 292 293 294 294 294 294 295 296 296 296 295 294 294 294 293 293 294 294 294 295 296 294 290 291 294 294 293 293 294 294 294 294 294 294 294 294 293 294 294 293 293 295 294 293 293 293 293 293 294 294 294 294 294 294 293 293 293 293 293 293 293 293 293 293 293 293 293 293 293 293 293 293 293 293 293 293 293 292 292 292 292 292 292 292
291 292 292 292 293 293 294 294 294 295 295 295 295 294 293 292 292 292 292 293 293 293 295 295 293 290 292 294 294 293 294 294 294 294 295 295 294 293 293 294 294 293 293 294 294 292 292 293 294 294 293 294 294 294 294 294 294 294 294 294 294 294 293 293 293 293 293 293 293 293 293 293 293 293 293 292 292 292 292 292 292 291 291 291 291 291 291
292 292 292 292 292 293 294 294 294 294 294 293 293 292 292 291 290 289 291 292 292 292 293 293 292 291 292 293 294 294 293 294 294 294 294 294 293 292 292 293 292 292 293 293 291 290 291 293 294 294 294 294 294 294 293 293 293 293 293 294 294 293 293 293 293 293 293 293 293 292 292 292 292 292 292 292 292 291 291 291 291 291 291 291 291 291 291
291 291 291 291 292 293 294 294 294 293 292 291 291 291 290 290 289 289 291 292 291 290 291 292 292 292 292 292 294 294 293 293 294 294 294 294 293 292 292 292 291 292 292 291 289 290 292 292 294 294 293 291 292 292 293 293 293 293 293 293 293 293 293 293 293 293 293 293 292 292 292 292 291 291 291 291 291 291 291 291 291 291 290 290 290 290 290
291 291 291 292 293 293 293 293 292 291 290 290 290 289 288 289 289 289 289 288 287 288 291 291 291 292 292 292 293 293 292 293 293 293 293 293 292 291 291 291 291 291 291 289 290 292 292 293 294 293 288 286 288 291 292 291 292 292 292 292 292 292 292 292 292 292 291 291 291 291 291 291 291 291 291 291 290 290 290 290 290 290 290 290 290 290 289
291 291 292 292 292 292 293 293 292 291 290 290 290 290 290 289 288 287 287 286 287 289 291 291 291 292 292 291 292 292 292 292 292 291 290 290 290 291 291 291 290 290 289 288 290 291 290 291 292 288 283 283 287 289 289 290 290 290 290 291 291 291 291 291 290 290 290 290 290 290 290 290 290 290 289 289 289 289 289 288 288 288 288 288 288 288 288
291 291 292 291 291 292 292 291 290 289 290 290 289 289 290 290 288 287 288 288 289 290 290 291 292 292 291 290 291 292 291 291 292 292 290 290 291 291 290 290 289 289 288 289 289 289 289 291 291 285 282 283 286 287 287 289 289 289 289 290 289 289 289 289 289 289 289 289 289 289 289 288 288 288 288 288 287 287 287 287 287 286 286 286 286 286 286
292 291 290 291 291 290 290 291 291 290 290 290 288 287 289 290 289 288 288 288 289 290 290 291 292 291 289 288 290 291 290 290 291 291 290 291 292 290 289 289 289 289 289 289 290 290 292 293 288 281 279 281 284 285 286 287 288 288 289 289 289 289 289 289 288 288 288 288 288 288 287 287 287 287 287 287 286 286 286 286 285 285 285 285 285 284 284
291 289 289 290 289 288 288 288 288 286 285 285 285 285 287 288 287 286 287 289 289 290 290 290 290 290 289 289 289 289 289 289 290 290 289 290 291 289 288 289 290 290 290 290 290 292 292 286 278 273 275 279 281 283 285 286 286 287 287 287 287 288 287 287 288 287 287 287 287 287 287 287 286 286 286 286 285 285 285 285 284 284 284 284 283 283 283
289 288 289 289 288 287 286 285 283 281 281 282 283 284 286 287 287 286 287 289 289 290 290 290 289 290 289 288 289 289 288 288 289 289 288 288 289 289 289 289 290 290 289 289 291 293 288 278 270 270 274 277 279 281 282 283 284 285 285 285 286 286 286 286 286 286 286 286 286 286 286 286 285 285 285 284 284 284 284 283 283 283 283 282 282 282 281
288 287 286 285 284 283 282 283 283 282 281 281 282 284 286 286 285 285 287 289 290 290 290 289 290 290 289 288 289 289 289 289 290 289 288 288 289 290 289 289 289 290 290 290 289 285 278 270 268 270 272 274 276 279 280 282 282 283 284 284 285 285 285 286 286 286 286 286 286 285 285 284 284 284 283 283 283 283 282 282 282 281 281 281 280 280 280
286 284 281 280 281 282 282 283 284 284 283 282 282 284 284 284 283 285 287 288 289 290 290 290 290 289 287 287 289 290 289 289 289 289 289 289 289 288 288 289 290 290 287 282 277 271 267 267 269 271 272 273 276 278 279 281 282 283 283 284 284 285 285 285 285 285 285 285 284 284 284 283 283 282 282 282 281 281 281 280 280 280 279 279 279 278 278
283 281 277 277 278 280 282 283 284 284 283 281 280 281 282 283 283 284 286 287 289 290 290 289 288 288 288 289 289 289 288 288 288 289 289 288 287 289 292 291 286 281 275 269 266 265 266 268 270 271 272 274 276 277 278 280 282 282 283 284 284 284 285 285 284 284 284 283 283 282 282 281 281 281 280 280 280 280 279 279 279 278 278 277 277 276 276
281 280 277 275 275 275 278 280 280 278 277 276 277 278 280 281 282 284 286 288 289 289 287 285 287 289 290 289 287 287 288 288 287 289 289 284 280 281 284 280 272 268 266 265 264 265 267 268 270 271 272 273 275 276 278 280 281 281 283 283 284 284 284 284 283 283 282 281 281 280 280 279 279 279 279 278 278 278 277 277 277 276 276 275 275 274 274
Wind_Speed
15 18 19 20 22 23 24 24 24 28 25 28 46 51 41 29 16 19 34 45 56 42 10 8 13 8 17 22 15 10 8 10 12 13 17 13 7 8 6 6 9 7 5 5 7 9 7 9 11 6 6 9 6 10 22 23 18 11 4 4 6 4 2 5 3 1 1 1 0 0 2 1 4 6 5 5 7 6 4 2 2 4 5 4 3 5 3
9 13 16 18 20 22 24 23 22 25 23 25 38 39 28 22 17 22 34 48 52 31 6 10 14 11 18 17 13 15 13 11 14 14 16 13 8 9 9 5 7 5 4 6 8 11 9 8 11 7 4 6 5 11 24 24 14 8 5 8 12 8 4 5 4 2 2 2 3 4 3 4 6 5 5 6 7 4 1 1 1 5 6 9 7 7 3
6 9 11 13 15 17 21 23 21 21 21 22 29 29 17 12 10 17 37 53 51 34 21 18 14 14 18 15 17 19 11 12 22 20 17 17 13 10 9 7 7 5 4 4 6 11 10 6 7 6 3 3 2 9 23 24 13 5 3 13 18 9 3 8 9 7 8 8 7 6 5 4 3 3 6 10 12 11 5 2 5 6 6 10 10 7 2
6 8 9 11 12 12 15 19 19 20 21 19 24 27 18 10 6 6 20 36 37 35 37 28 13 14 18 14 16 21 14 11 18 20 18 20 17 10 5 7 8 6 7 8 9 12 10 3 3 5 5 3 1 4 16 18 11 6 7 19 18 4 2 11 13 12 10 5 3 3 8 9 8 9 11 12 14 15 9 4 7 6 4 8 12 8 4
8 8 9 11 12 12 11 14 15 18 21 20 23 28 20 8 6 6 8 13 13 14 23 22 12 14 19 12 10 20 20 9 9 15 16 18 19 10 1 7 11 10 13 13 9 11 9 4 4 4 3 3 2 2 8 9 9 6 9 17 13 1 5 13 15 16 9 1 1 4 8 12 14 14 14 13 12 14 13 12 9 6 4 9 8 9 10
11 10 11 11 12 13 13 13 14 15 19 21 22 24 19 7 6 13 13 8 5 7 12 16 15 17 17 11 8 15 20 14 11 12 9 12 19 11 2 10 17 16 16 13 8 9 8 7 7 4 3 3 2 2 2 3 6 6 5 9 6 2 7 9 10 15 9 2 1 4 5 6 8 13 16 14 15 17 16 16 11 8 10 11 6 11 15
13 12 13 14 13 14 14 14 15 14 14 18 20 17 13 6 5 12 15 7 2 5 8 12 17 17 14 11 10 13 18 18 14 7 3 6 13 13 11 13 15 14 14 11 10 11 11 10 9 6 6 5 4 3 2 3 5 6 4 4 3 3 4 3 5 10 9 3 3 3 4 3 3 8 12 13 15 15 15 17 15 13 16 12 5 8 14
14 13 15 15 14 14 14 13 14 14 11 14 20 17 10 6 4 8 11 5 0 2 4 7 12 14 12 11 10 10 15 17 13 7 7 8 8 12 16 16 14 14 13 11 11 13 14 12 10 10 9 6 5 5 4 4 5 5 4 3 3 4 3 3 4 5 7 6 4 2 4 4 4 8 10 9 9 8 9 13 13 11 14 11 4 8 11
14 14 15 16 15 15 14 13 13 15 13 13 18 16 9 8 6 9 10 4 0 2 2 3 7 10 10 10 9 10 14 16 11 5 6 8 7 9 15 16 11 10 12 14 15 17 16 11 10 15 15 11 11 9 6 8 7 5 5 4 4 5 3 3 5 7 7 6 8 6 2 0 7 14 13 11 9 8 10 12 11 11 12 12 10 10 10
16 16 17 16 16 16 15 14 13 15 16 15 15 13 11 9 7 10 11 4 1 2 1 1 5 5 4 7 8 9 12 13 11 6 2 2 2 5 12 14 9 8 13 17 18 18 15 11 11 17 17 13 12 10 11 15 12 8 6 4 4 7 5 4 6 8 4 1 6 7 4 1 9 14 12 15 13 11 11 11 12 13 11 10 11 11 9
21 19 18 17 17 17 16 15 15 15 17 17 14 13 14 13 8 8 8 3 0 2 2 3 4 1 1 1 2 3 6 8 8 6 3 3 3 1 7 11 9 7 9 10 10 9 9 10 10 12 10 8 8 9 13 15 12 12 11 6 4 7 7 5 5 5 2 0 4 6 5 7 8 5 5 14 18 17 15 13 15 15 12 8 5 5 5
22 19 18 18 17 18 18 17 16 16 17 17 15 13 14 14 12 8 5 2 1 3 2 2 3 2 3 5 4 2 3 5 4 3 5 3 4 7 4 5 7 5 7 13 16 17 16 13 12 12 12 12 10 7 7 6 4 8 12 9 7 8 7 4 3 2 1 2 5 6 7 7 2 3 3 3 9 15 17 16 15 13 11 8 6 6 6
22 18 16 17 17 17 18 18 18 17 17 17 16 14 13 13 13 11 6 2 1 2 2 2 4 6 7 7 5 4 5 7 7 8 7 3 2 7 8 4 4 10 16 19 20 17 10 6 6 7 6 7 7 6 5 5 3 1 4 5 6 8 7 3 2 3 3 3 7 6 3 1 3 1 2 3 3 4 8 10 10 9 11 11 12 11 7
23 19 16 16 17 17 17 17 18 17 17 18 17 14 14 14 14 14 11 5 1 2 3 3 5 7 8 8 7 5 4 4 4 5 4 3 3 3 5 8 13 16 15 12 11 9 4 2 4 3 2 2 2 1 2 4 5 4 3 2 0 5 6 4 4 4 3 3 6 2 5 4 4 4 4 5 4 5 6 6 7 8 11 13 12 11 6
22 22 20 18 17 17 17 16 17 17 17 18 17 16 15 15 14 13 12 7 3 2 4 3 6 8 6 7 8 6 4 4 3 3 2 4 4 4 7 11 14 14 11 7 4 3 2 2 3 3 3 2 2 2 2 2 2 3 3 3 2 1 2 3 4 4 3 3 4 2 4 7 4 4 5 5 3 5 6 4 3 3 10 16 15 12 9
21 22 23 22 19 19 19 18 17 17 17 17 18 18 17 17 15 14 14 11 6 3 5 7 12 13 7 5 8 6 3 4 4 2 2 2 3 5 8 11 15 16 11 6 2 1 2 2 2 4 3 3 3 3 2 2 1 2 3 2 2 1 1 1 3 3 4 4 4 4 5 4 2 3 2 3 6 9 8 2 3 3 11 20 18 11 10
21 21 22 25 24 21 21 21 20 18 18 17 18 19 19 20 19 15 14 13 7 2 6 12 16 15 8 4 5 5 3 4 4 2 2 3 3 5 7 10 14 16 11 4 1 1 2 1 1 2 1 1 3 3 2 3 3 1 2 3 3 2 1 2 4 4 5 5 4 4 4 2 2 2 2 4 8 10 7 2 3 3 10 18 17 11 11
21 20 20 23 25 23 21 22 23 21 18 18 18 19 20 21 21 18 16 15 8 3 10 18 17 13 8 5 6 7 7 6 4 1 2 2 2 5 9 10 9 9 8 4 2 3 4 2 2 3 1 1 2 2 3 4 3 4 5 5 3 2 1 2 4 5 6 8 5 3 3 2 2 4 7 9 7 5 5 3 2 7 12 15 16 14 12
21 21 19 19 23 24 21 21 24 23 21 20 19 20 20 20 21 19 18 16 9 6 14 21 18 14 13 11 10 10 9 8 7 4 3 1 3 9 12 9 6 5 5 4 2 3 5 3 1 2 2 1 2 1 2 3 3 4 6 5 4 3 2 2 4 5 5 5 5 4 4 3 7 7 8 9 5 2 4 3 7 13 14 14 16 15 13
21 21 21 19 20 22 20 21 24 25 24 23 22 22 21 21 21 19 17 16 12 10 15 21 18 15 16 15 12 12 11 9 8 6 2 2 9 14 8 4 6 4 3 4 4 2 4 4 2 2 2 3 3 1 1 1 0 3 5 5 4 5 4 3 4 4 2 2 4 5 5 4 15 14 5 4 4 3 8 10 9 11 12 15 18 15 14
21 21 22 21 21 21 21 21 22 26 27 26 24 24 23 22 22 20 17 15 12 9 12 19 18 15 15 14 12 12 12 11 13 11 5 7 17 15 3 1 7 5 2 4 4 1 2 2 2 1 1 1 2 2 2 1 1 1 1 1 2 4 5 4 4 5 4 3 6 4 2 9 24 17 3 6 8 8 12 12 9 10 13 16 18 16 15
22 22 22 23 22 22 22 22 22 24 28 29 27 26 25 24 23 21 19 17 12 7 10 18 18 15 14 13 11 13 14 13 16 17 12 11 18 14 3 4 9 8 5 5 3 0 2 2 2 2 1 1 2 2 1 2 2 1 0 1 3 3 3 2 2 3 3 2 3 0 2 15 25 10 3 9 14 11 11 10 11 15 16 15 18 18 17
23 22 22 23 23 23 23 24 23 21 23 28 31 30 28 27 26 24 22 19 14 9 10 16 17 15 15 16 13 13 16 16 16 18 16 12 13 12 7 5 8 8 7 6 2 1 2 2 2 2 1 1 3 2 0 1 2 2 1 3 2 1 1 1 1 2 1 2 2 2 1 13 22 9 5 11 17 14 11 10 11 16 16 15 17 18 17
24 23 23 23 23 23 23 24 25 22 20 23 30 32 29 27 27 27 24 19 15 10 7 11 17 16 15 16 15 14 15 17 17 18 19 16 11 8 7 8 8 6 5 6 4 4 5 2 1 1 1 2 3 3 3 4 3 2 2 2 2 0 2 2 0 2 2 1 3 3 1 8 20 15 5 9 15 16 14 11 10 13 15 15 16 16 16
25 24 24 24 23 24 24 24 25 25 21 21 27 31 30 27 27 28 25 20 17 12 6 6 15 19 14 12 15 16 15 17 17 17 19 20 16 10 8 10 11 7 4 5 7 6 5 2 1 1 2 3 4 3 2 3 3 4 4 3 2 3 6 4 1 1 2 1 1 1 1 5 15 18 14 11 13 15 15 13 12 13 13 14 16 16 16
26 25 25 25 23 23 24 24 24 25 24 23 24 28 30 28 26 28 27 22 15 10 5 3 9 17 18 15 16 17 16 17 18 17 17 19 19 16 11 10 11 9 5 5 7 7 4 2 2 2 2 2 3 2 1 0 1 3 4 3 2 5 6 4 1 2 2 1 0 1 1 1 8 16 19 17 14 14 14 15 14 14 14 14 15 16 17
27 26 25 25 24 23 24 24 24 24 24 24 24 24 26 28 28 29 30 26 15 6 3 4 7 12 16 16 16 17 16 16 17 17 17 17 18 18 16 11 8 9 8 6 5 5 4 2 1 1 1 1 2 2 0 0 2 1 2 3 4 5 4 2 2 2 2 1 6 8 4 0 7 16 20 19 16 15 14 14 14 15 15 16 16 17 19
28 27 26 25 25 24 24 24 24 24 23 24 24 23 25 28 28 27 28 30 22 9 5 6 8 10 10 12 14 15 14 14 15 15 16 18 17 17 18 15 10 9 10 8 5 3 2 2 2 2 2 2 2 1 2 2 1 1 3 5 7 8 6 5 4 2 1 4 13 16 9 2 5 12 14 15 15 14 14 15 15 16 16 16 16 18 20
29 28 27 26 25 25 24 24 24 24 24 23 22 23 25 28 29 28 27 31 28 15 11 10 7 7 6 6 11 16 15 14 14 15 16 17 17 17 18 17 13 11 11 9 5 2 1 3 4 3 3 4 3 2 0 1 1 5 6 8 13 14 12 9 7 3 3 6 12 15 11 5 4 8 9 10 12 13 14 16 16 16 16 16 17 19 20
29 29 28 27 25 25 25 25 24 24 26 24 22 21 19 21 28 32 30 32 33 24 14 9 4 7 8 7 8 14 17 17 16 15 16 18 18 18 18 17 15 13 11 8 6 3 2 3 4 4 6 8 5 2 1 2 2 6 7 11 16 16 13 10 8 5 5 6 7 9 11 9 5 6 9 11 12 14 15 16 16 16 16 17 19 20 20
28 29 29 28 27 26 26 26 24 24 26 26 24 18 10 11 25 35 34 34 37 29 15 7 4 6 7 7 8 12 16 19 19 17 17 19 17 16 18 18 17 16 13 9 7 5 3 3 4 4 7 9 6 1 2 3 2 5 6 12 18 18 13 11 10 9 8 8 8 9 10 11 9 10 12 14 14 15 16 16 16 16 16 18 19 20 21
28 29 29 29 28 27 26 26 25 25 27 29 29 25 16 13 21 30 34 35 35 27 15 7 4 4 3 4 9 13 16 19 20 18 17 18 19 17 18 18 17 17 15 10 5 4 4 5 5 5 6 9 7 2 2 3 6 6 7 11 12 14 12 11 13 12 12 13 12 9 9 13 16 16 15 15 14 14 15 16 16 16 17 18 18 19 20
27 28 30 29 29 27 26 26 27 27 27 28 30 31 29 22 16 18 28 35 32 24 15 7 2 2 3 4 9 16 18 17 17 16 14 15 18 18 17 17 16 14 15 11 5 4 6 6 6 6 7 8 7 2 1 6 14 14 7 7 7 9 9 10 11 11 14 17 16 12 12 16 17 15 15 15 15 15 15 16 17 17 18 18 19 19 19
28 28 29 30 30 28 27 26 27 26 26 28 31 32 33 28 18 15 26 35 29 18 12 8 3 1 3 3 3 14 20 16 13 13 11 10 16 18 15 13 13 10 11 12 8 3 4 5 6 5 5 5 4 2 3 10 18 20 14 13 16 14 9 8 10 14 17 18 17 17 18 18 17 16 17 17 17 17 17 18 18 19 19 19 20 20 19
29 28 29 31 30 28 26 26 27 25 24 29 33 33 33 30 23 17 25 33 25 9 5 8 6 3 4 3 1 12 20 14 10 13 11 9 15 18 13 8 7 7 8 10 7 3 4 7 8 5 3 3 3 3 5 9 15 20 20 20 21 18 12 12 17 22 22 19 18 18 19 18 19 20 20 21 21 20 20 20 20 20 20 21 22 21 20
29 28 29 29 28 27 25 25 27 27 26 29 32 33 31 30 27 27 33 37 27 11 5 8 6 6 7 3 1 11 19 12 8 12 11 7 10 15 11 6 5 7 7 6 4 4 7 10 8 2 2 4 4 7 12 15 17 22 25 25 24 23 22 21 19 17 16 16 18 19 19 20 22 22 23 23 23 22 22 22 21 20 21 22 22 21 21
31 28 27 26 25 24 24 25 27 28 28 29 30 30 28 27 28 33 38 36 25 14 11 9 6 8 10 3 2 13 18 11 7 10 9 6 8 10 9 6 4 5 6 3 3 5 9 10 7 2 3 8 12 18 25 27 27 28 29 27 23 22 22 21 16 11 10 12 15 17 19 20 22 23 24 24 24 23 23 23 22 21 22 22 22 21 20
31 27 25 25 23 19 19 24 29 30 30 30 27 23 22 23 22 23 24 22 16 14 14 10 6 8 9 3 5 15 17 10 7 7 7 8 8 5 4 4 5 5 3 2 6 10 9 5 4 4 6 10 16 24 31 33 32 30 28 25 21 17 15 14 14 12 11 12 14 18 20 20 21 23 24 24 24 24 23 23 22 22 22 22 22 22 22
31 28 26 25 24 20 19 23 28 29 29 29 24 16 12 14 12 9 8 9 7 9 11 8 6 11 11 5 5 13 14 9 5 4 5 9 9 5 2 3 5 4 1 2 8 12 7 2 3 5 5 7 15 27 32 30 27 26 24 23 22 20 18 17 16 16 16 17 20 21 20 19 21 23 23 23 23 23 22 22 21 20 20 21 21 21 21
32 30 26 26 26 24 22 22 26 28 26 24 17 8 4 5 5 3 4 5 2 3 8 8 8 14 18 14 10 10 12 12 9 5 6 8 8 5 3 2 3 3 2 3 5 8 5 2 4 5 4 7 15 23 23 18 18 21 21 22 23 22 21 21 20 20 20 21 21 19 18 19 21 21 21 22 22 22 22 21 20 19 19 19 19 18 19
33 29 26 26 27 25 22 24 25 23 18 13 8 3 2 2 1 2 4 4 1 2 7 10 8 8 15 19 14 10 11 14 12 8 5 4 4 4 3 1 1 2 2 3 3 4 2 2 4 4 7 9 11 11 9 9 13 16 17 19 21 21 20 20 19 18 19 19 19 18 18 18 19 19 20 21 21 21 21 20 19 19 18 18 18 18 19
35 31 26 24 24 25 26 25 20 13 7 4 2 2 1 1 2 1 2 3 2 3 6 10 8 7 13 19 16 10 10 14 12 7 4 3 3 4 2 0 1 2 2 2 3 3 1 3 4 5 6 5 5 5 6 8 9 10 11 14 16 16 16 15 15 15 16 17 17 17 17 17 17 17 18 18 18 18 18 18 17 18 18 17 18 19 19
34 30 25 22 23 25 22 14 9 5 3 2 3 3 2 1 1 1 0 1 2 4 6 10 11 12 14 16 12 9 10 14 10 4 2 3 3 3 2 1 1 2 2 3 3 2 2 4 5 4 3 8 10 9 9 9 9 9 9 10 10 10 11 11 11 12 13 13 14 15 14 14 14 15 15 15 16 16 16 16 16 17 17 18 18 18 18
29 27 23 19 17 17 12 6 4 5 3 1 2 4 3 2 1 1 2 4 4 5 9 14 16 14 11 10 9 7 7 9 7 3 2 2 2 2 2 2 2 2 3 2 2 1 1 3 4 3 7 12 12 11 10 10 9 9 7 7 7 8 8 8 8 9 10 10 11 12 12 12 13 13 13 13 13 13 13 14 14 14 15 15 16 16 17
22 19 15 10 7 8 6 3 2 3 2 2 3 4 5 6 5 3 4 7 10 12 14 18 19 15 9 7 7 6 3 4 4 3 1 2 2 1 2 2 1 2 2 2 1 0 1 3 2 3 7 9 9 10 10 10 9 8 7 7 7 6 6 7 8 8 8 9 9 10 10 11 11 11 11 11 11 10 11 11 11 11 12 12 12 13 13
18 13 8 4 2 3 3 1 1 1 2 3 3 4 4 5 6 6 8 11 16 19 21 22 22 17 9 4 5 5 4 4 4 1 1 3 2 1 1 2 2 2 2 2 1 2 3 2 1 4 7 9 9 9 9 8 7 8 8 8 8 8 8 9 9 9 8 8 8 8 9 9 9 10 10 10 9 9 9 9 9 9 9 9 9 9 9
14 8 5 3 2 1 0 1 2 2 1 1 3 5 8 11 12 12 14 19 24 27 26 24 21 17 10 5 5 4 3 3 2 0 1 3 2 0 1 2 1 2 3 3 4 4 3 0 3 5 7 8 8 8 9 8 8 9 9 9 9 9 8 8 7 7 6 6 6 6 6 6 7 8 8 8 8 8 7 7 7 7 7 7 7 6 6
9 4 3 3 1 0 1 3 5 4 4 4 8 12 17 18 14 11 17 25 31 33 29 21 14 10 7 5 4 2 1 2 2 1 1 2 2 1 1 1 1 1 2 4 4 3 1 2 4 6 6 7 8 8 8 9 9 9 9 9 8 7 6 5 4 4 3 3 3 4 4 5 5 6 6 6 6 6 5 5 5 5 5 5 4 4 4
7 6 5 2 1 1 2 6 8 5 5 5 11 16 18 16 12 13 21 28 30 29 27 21 13 7 3 2 3 2 1 1 2 2 2 2 2 2 2 2 2 3 2 2 2 1 3 3 4 5 5 6 7 8 8 8 9 9 9 8 7 7 6 4 3 2 1 2 3 3 4 4 4 5 5 4 4 4 3 3 3 4 4 3 3 3 3
8 7 5 3 2 1 2 5 7 3 3 4 7 10 12 14 14 14 20 25 28 27 23 16 10 6 2 1 2 2 0 1 2 3 2 2 2 2 2 2 4 3 2 1 2 3 3 3 3 3 4 5 6 7 7 8 8 8 8 8 7 5 4 3 2 2 3 3 4 4 4 4 4 4 4 3 3 3 3 3 4 4 4 4 5 5 4
7 6 5 7 6 4 2 5 7 5 3 3 4 5 9 12 12 12 18 25 27 22 12 5 3 4 3 2 2 2 1 1 3 2 1 2 2 2 3 3 2 0 2 4 5 5 4 3 2 2 3 4 5 6 7 7 7 7 7 6 4 4 3 3 3 3 3 3 4 4 3 3 3 3 3 3 2 2 3 4 4 5 5 5 5 6 6
5 4 4 9 14 13 10 9 10 8 7 8 8 8 10 11 11 14 20 22 18 11 5 3 3 4 3 1 2 2 2 2 2 2 2 1 1 1 2 1 1 4 4 5 6 7 5 3 1 1 2 3 5 5 6 7 7 6 5 5 4 4 4 4 4 4 4 4 4 3 3 3 4 4 4 4 4 4 4 4 5 5 5 5 5 6 5
Wind_Direction
243 240 241 241 238 237 233 230 232 230 232 231 224 218 202 193 208 199 194 199 191 181 179 199 187 215 224 221 222 199 192 206 193 187 199 206 207 207 215 217 215 213 180 165 169 179 191 192 195 210 214 212 220 188 178 168 158 158 159 156 140 112 164 200 207 212 91 25 33 330 341 312 246 248 221 204 213 205 214 236 152 185 198 167 209 248 243
246 243 240 238 237 237 233 231 231 226 230 230 218 209 197 190 188 174 185 195 189 179 183 193 190 217 218 217 221 212 215 210 197 197 201 200 198 207 214 207 208 215 165 165 183 187 199 205 195 201 209 197 201 181 175 172 171 183 190 164 159 161 178 183 190 206 189 201 215 212 205 203 227 232 191 202 217 203 172 74 169 238 199 172 215 246 197
246 246 243 236 233 235 234 233 232 225 224 221 215 214 207 186 173 170 182 186 185 187 196 192 193 206 206 211 214 212 221 212 206 207 203 202 203 204 210 195 182 181 158 174 194 194 206 217 198 203 210 180 169 178 181 182 185 212 190 153 159 168 174 178 191 206 204 207 216 211 179 168 222 210 178 201 205 193 188 173 213 229 173 171 217 242 140
253 244 244 240 231 232 235 233 233 230 222 217 219 222 214 181 172 187 189 190 191 196 198 195 193 197 200 209 211 209 216 212 207 205 202 205 203 197 193 171 170 180 184 191 205 208 217 228 182 202 195 173 11 177 183 187 195 212 165 154 157 155 210 196 209 218 211 208 210 155 129 155 199 198 185 197 202 197 197 213 220 204 151 204 221 221 218
264 255 247 246 237 234 236 232 231 229 222 223 224 217 209 195 185 174 185 208 218 210 198 196 199 198 198 200 203 208 212 210 197 201 204 202 197 199 157 168 187 198 192 198 208 202 205 204 185 192 167 133 40 122 174 188 194 190 172 167 162 134 219 209 222 231 232 35 91 165 154 180 201 199 196 199 196 195 200 217 217 156 171 239 199 176 222
265 267 257 251 243 238 237 232 229 225 220 224 224 210 200 198 186 177 174 184 226 230 206 197 201 202 198 200 204 207 209 209 199 199 202 191 190 196 215 198 205 202 190 195 199 182 191 211 199 170 135 141 112 103 155 196 186 167 168 180 165 185 224 209 214 232 244 46 132 202 176 190 205 201 201 197 190 192 199 216 217 171 212 247 144 165 223
263 265 260 256 248 240 238 234 229 224 218 220 223 215 199 181 164 178 183 181 195 224 208 196 203 202 194 201 213 209 211 214 204 178 147 186 195 198 208 209 206 200 191 189 189 185 190 206 201 170 159 170 153 139 163 190 183 165 160 192 178 193 227 180 178 231 246 210 186 196 174 188 216 205 204 197 193 192 195 212 215 206 228 244 138 189 239
260 262 260 255 248 239 234 234 230 223 216 213 215 215 208 197 170 163 180 192 100 172 181 188 203 204 194 200 210 208 214 216 207 179 172 194 201 201 212 216 201 193 197 195 201 204 196 199 197 169 162 174 178 185 184 163 172 173 166 182 191 202 211 129 137 228 239 207 195 207 195 199 224 226 218 197 182 181 198 216 214 212 236 243 201 236 254
257 260 260 253 246 238 227 225 225 216 208 206 206 207 208 212 194 163 168 183 225 187 170 174 201 207 202 202 199 201 215 215 206 204 205 203 200 201 214 221 209 202 209 209 219 222 212 213 201 177 178 188 189 191 172 148 152 170 177 169 166 197 211 119 155 218 227 193 187 198 175 108 257 248 225 183 163 178 202 216 211 203 222 234 230 245 253
258 258 258 253 245 239 225 219 219 211 206 204 201 199 200 200 187 168 169 169 199 197 146 160 199 206 208 208 197 199 213 209 199 208 225 179 177 209 219 222 213 212 215 216 228 233 226 229 213 193 194 194 183 178 167 161 162 164 172 178 174 184 191 162 181 208 223 170 182 178 126 142 252 248 211 181 184 196 203 215 217 208 208 218 225 235 246
252 252 252 253 247 239 229 220 215 210 206 206 208 208 200 190 176 159 156 146 191 182 168 190 198 181 58 141 142 182 193 184 192 211 194 122 55 43 210 208 208 220 221 213 216 204 170 154 151 152 147 129 129 148 159 165 174 174 170 172 173 176 185 189 189 199 219 81 137 144 170 216 240 264 201 188 194 197 203 216 216 208 206 217 240 245 233
240 241 243 247 247 241 233 224 217 214 208 206 211 216 206 193 183 166 146 128 175 170 177 195 168 122 125 114 79 64 117 104 90 114 135 128 28 42 94 186 210 194 141 138 143 136 122 110 103 97 85 73 72 86 119 132 168 184 176 170 165 170 183 188 173 160 136 103 130 165 212 226 231 349 328 209 196 199 210 227 227 211 201 208 230 237 215
235 236 236 237 239 238 233 226 220 216 210 206 207 209 208 200 188 176 157 122 155 174 166 130 123 128 133 124 108 103 96 79 76 92 102 109 49 48 51 55 137 131 122 124 128 125 109 80 78 77 56 49 48 36 45 56 26 310 189 179 168 171 178 164 141 149 121 142 180 195 243 244 126 68 350 42 76 167 207 242 248 213 191 198 216 225 212
242 241 236 232 230 229 229 225 220 217 211 206 204 206 210 206 194 183 172 150 117 182 160 125 132 142 136 131 131 123 112 105 99 98 104 125 139 107 79 102 122 126 124 117 107 102 102 102 103 100 67 68 90 52 54 53 23 9 353 335 66 172 175 164 180 184 140 173 204 243 327 284 177 149 187 182 154 151 176 227 245 206 190 194 208 218 194
250 245 238 234 228 224 226 224 217 215 212 207 204 204 206 206 202 195 184 164 127 174 197 185 163 155 140 139 144 132 123 142 123 99 127 132 130 144 139 135 140 141 136 125 98 76 100 129 126 141 155 153 164 172 139 99 34 13 358 347 358 185 184 175 196 195 139 168 212 247 281 255 209 157 192 203 177 141 150 202 256 201 187 190 197 210 189
254 247 240 237 230 222 224 225 219 213 211 209 207 203 200 201 203 200 188 174 152 173 220 201 169 155 137 136 152 145 132 156 145 114 129 134 139 159 159 159 165 162 147 120 83 82 108 120 145 158 164 166 154 130 115 147 136 8 6 47 87 74 26 172 204 195 161 183 216 210 226 246 190 160 201 194 167 138 118 173 251 183 184 191 195 201 179
254 251 246 243 237 226 222 223 222 216 211 210 208 203 200 198 200 203 194 178 161 142 180 174 162 151 133 120 152 154 140 142 139 136 173 157 131 142 157 163 166 166 159 137 79 127 128 101 129 154 156 155 147 130 118 149 159 143 98 111 124 134 147 205 217 208 191 202 217 221 245 264 134 164 197 179 169 150 134 226 257 176 185 191 192 195 179
249 250 249 248 243 235 226 221 220 217 213 210 207 204 203 199 199 204 195 177 163 146 168 168 165 161 161 163 160 162 158 148 134 95 111 122 137 159 157 156 164 173 175 166 147 167 173 165 154 167 168 125 143 141 135 146 165 173 149 127 128 157 161 194 216 225 216 214 224 251 262 233 150 178 177 156 144 157 191 224 178 166 184 186 186 194 187
247 247 247 248 244 240 234 225 219 216 212 207 201 198 199 197 195 196 190 179 172 170 176 178 179 182 182 173 159 160 166 168 169 160 130 111 169 156 149 155 174 177 173 177 179 176 181 190 186 159 160 183 199 181 150 152 147 147 147 141 145 160 150 178 213 224 218 224 240 259 259 189 134 144 168 160 148 200 202 152 134 158 174 179 185 194 191
248 245 243 242 240 239 238 231 221 216 213 207 201 196 192 191 191 193 193 188 175 162 176 186 190 192 190 184 177 175 174 176 178 171 157 165 156 145 140 184 191 155 141 182 193 189 191 192 172 151 177 189 179 145 136 199 157 150 168 182 177 162 158 181 206 193 174 232 221 226 270 161 136 131 140 197 210 160 137 132 138 155 167 176 184 193 197
249 245 241 240 239 237 239 238 228 220 216 211 204 199 193 189 191 195 199 196 179 161 180 190 191 193 197 200 204 202 199 203 204 199 189 164 163 162 158 188 167 157 150 173 178 194 195 177 136 140 196 181 167 164 151 173 255 252 185 202 195 175 170 191 208 179 166 208 205 205 320 162 157 148 140 197 182 135 130 142 156 169 176 181 185 192 201
249 247 241 239 239 236 236 239 237 227 220 215 209 203 198 194 193 194 197 196 187 175 188 191 189 193 198 199 205 209 211 217 216 211 200 170 173 189 228 107 151 173 175 157 151 144 158 146 126 148 160 155 182 197 164 159 188 181 92 239 224 203 172 175 209 181 163 178 194 122 74 168 171 160 51 164 164 140 138 160 175 177 181 189 193 197 201
247 247 243 239 238 236 233 234 236 235 227 219 214 208 202 200 197 194 195 196 187 168 174 184 187 196 203 202 204 210 213 215 216 214 206 186 184 207 221 164 166 186 182 170 171 115 134 156 141 133 165 186 162 145 36 252 202 158 188 237 253 4 76 82 71 180 162 57 119 122 113 176 179 171 82 149 163 156 155 175 186 184 186 190 193 198 202
245 245 244 241 237 236 233 230 231 234 232 224 220 215 209 205 201 194 190 187 176 159 157 180 191 197 203 207 214 223 225 225 224 219 214 206 198 205 214 198 185 178 180 192 184 128 116 125 114 111 188 180 153 152 192 215 213 156 157 223 285 268 174 168 138 196 196 133 134 131 71 189 191 193 174 159 171 175 176 182 186 188 193 195 193 198 204
243 243 243 241 238 236 234 232 230 230 229 225 222 218 213 209 205 201 197 188 176 172 170 191 203 207 209 211 218 224 227 226 223 220 219 217 212 208 208 203 196 187 175 179 174 150 123 107 108 146 203 182 164 176 211 210 194 178 181 216 254 179 168 176 216 198 165 110 131 129 349 208 204 209 208 195 192 194 193 194 194 194 199 203 202 204 208
241 241 240 240 239 236 233 232 232 231 229 226 223 221 218 214 209 208 206 193 174 173 187 188 202 209 210 213 219 223 220 215 213 214 216 217 216 214 208 194 194 199 191 164 165 159 130 90 109 169 216 200 154 146 211 214 132 166 204 219 144 137 160 178 170 132 116 51 182 181 12 275 221 215 210 209 216 215 206 206 210 209 210 210 211 213 218
238 239 238 238 238 237 234 231 230 230 229 227 226 226 226 222 217 214 211 201 184 171 206 198 180 190 204 219 227 225 218 210 210 213 215 213 212 212 208 197 187 187 179 162 153 145 123 88 98 167 187 118 79 67 346 78 80 87 232 209 149 151 179 168 116 160 199 176 175 177 163 33 213 206 205 210 218 223 220 219 221 222 223 224 223 223 225
236 237 238 236 235 236 233 230 229 228 229 229 227 227 228 226 223 223 220 214 210 194 144 151 159 165 192 226 228 218 213 210 209 213 215 213 211 208 206 204 195 180 172 161 145 126 134 162 138 108 119 137 120 68 22 41 65 259 242 199 181 192 202 176 154 195 218 162 177 185 186 188 199 197 201 208 215 221 223 224 226 230 233 237 240 240 240
235 235 235 234 234 233 230 229 228 226 226 227 225 224 227 227 226 225 222 219 218 199 134 118 139 161 177 205 205 200 200 201 205 209 209 209 210 207 203 202 199 190 179 168 152 120 136 172 154 147 181 179 155 144 92 87 207 242 234 199 196 209 214 191 163 129 113 155 177 188 194 198 183 175 184 199 211 219 223 226 233 240 243 247 252 254 255
233 233 233 232 233 231 228 228 227 223 225 226 219 213 216 221 223 223 219 218 218 205 162 127 152 179 174 169 172 183 188 188 191 199 201 202 206 205 201 201 200 193 183 174 171 160 144 166 176 188 193 175 146 123 181 159 222 255 235 208 209 217 215 190 170 165 181 188 188 196 206 213 200 179 190 206 217 224 228 233 238 243 248 254 257 260 263
233 232 231 230 231 229 227 229 225 219 222 222 210 196 191 212 221 219 214 213 214 205 176 137 149 162 169 182 176 176 183 184 182 185 192 197 201 201 199 199 199 196 189 181 180 180 171 171 181 190 186 172 155 113 152 157 256 268 214 200 216 222 211 193 193 198 206 213 209 203 212 220 218 215 222 229 232 232 235 241 245 248 253 257 259 262 264
232 232 230 229 229 227 226 227 224 221 222 221 214 207 206 220 225 216 207 208 209 197 169 143 158 152 150 195 187 179 180 183 182 180 183 189 192 191 193 196 197 197 194 185 175 191 198 179 165 171 179 171 162 120 107 182 243 244 166 165 207 221 211 209 213 210 216 224 216 199 209 223 226 232 245 254 255 251 251 256 259 259 259 261 261 262 262
232 231 229 229 228 225 225 225 224 223 223 223 223 221 219 226 236 216 200 201 200 190 172 158 153 168 171 171 178 178 175 173 176 174 173 183 187 183 184 191 194 194 194 194 192 194 192 175 155 167 182 171 157 124 112 223 238 237 199 172 216 225 211 208 208 209 222 229 223 218 234 246 250 257 267 270 267 263 262 263 264 262 261 262 261 259 259
230 227 228 229 226 223 223 223 225 227 222 217 221 225 223 224 227 209 195 193 187 178 176 172 131 108 154 123 159 186 178 167 166 170 168 179 184 176 171 179 186 189 200 206 204 186 184 175 153 157 175 168 154 167 227 237 243 246 246 247 250 247 235 218 223 235 242 240 237 241 251 261 265 266 266 266 265 264 262 261 262 262 262 262 262 261 260
228 226 227 227 225 225 225 223 226 229 219 210 216 222 222 218 214 206 198 191 182 166 173 174 158 150 159 108 12 197 186 175 164 166 162 166 177 175 162 156 179 199 205 199 195 200 202 179 155 147 175 175 161 203 227 238 247 249 248 249 247 244 239 235 241 249 250 245 244 248 250 252 253 256 261 265 265 265 265 263 262 262 261 263 264 264 261
226 225 225 224 224 227 227 226 228 227 217 213 216 218 218 216 211 203 197 191 184 174 160 162 165 179 180 180 240 180 177 173 156 155 151 142 165 174 165 150 187 206 187 172 190 226 202 180 163 155 221 190 193 226 229 230 237 241 243 246 243 238 238 240 241 245 244 236 237 241 242 243 247 253 260 265 265 265 266 265 262 260 260 263 267 267 265
221 221 223 223 222 223 224 227 226 221 218 219 217 209 205 204 196 190 190 189 186 180 167 164 182 187 179 182 152 160 165 164 146 148 152 143 153 168 168 165 190 183 158 165 230 199 182 177 170 175 224 213 220 229 230 231 235 239 243 248 246 241 242 243 238 234 227 219 226 234 236 240 246 252 258 265 267 267 267 268 268 267 266 269 272 273 272
216 216 216 214 214 217 221 223 220 217 218 219 209 190 182 181 177 178 185 189 193 192 181 174 176 170 159 139 153 162 164 159 143 150 160 155 153 159 162 178 199 179 154 224 206 172 162 170 178 197 232 235 233 236 236 237 241 244 247 253 256 256 254 248 238 230 218 214 229 242 241 242 251 259 264 270 273 273 273 275 276 274 273 274 276 276 276
210 209 208 208 210 214 216 216 217 215 211 204 192 173 162 166 165 167 176 174 176 187 184 179 172 165 158 135 142 161 163 153 138 158 172 166 170 178 152 170 196 178 139 234 189 166 159 194 200 204 234 242 238 241 242 242 246 251 256 262 267 271 273 270 264 260 255 255 263 266 261 260 266 271 274 278 279 279 279 278 277 276 275 276 277 276 275
203 203 202 201 206 214 217 215 214 208 195 181 171 158 153 167 165 154 151 145 139 185 179 170 166 171 173 170 157 159 170 170 162 162 169 170 172 164 132 161 192 155 151 233 183 153 152 183 178 194 234 238 239 245 247 248 255 260 265 269 272 272 273 271 270 270 269 270 273 273 269 269 272 274 276 278 278 279 279 279 279 278 277 276 276 274 272
196 197 198 199 205 210 203 191 189 187 176 161 150 138 140 168 157 116 128 141 175 208 171 158 150 168 182 177 162 150 170 175 162 145 148 166 160 136 139 208 207 130 171 219 155 119 128 172 167 208 237 237 240 247 247 246 251 253 257 262 263 263 264 264 265 266 267 269 271 269 267 267 267 268 270 271 272 274 276 276 276 277 276 275 275 273 271
193 195 197 198 197 191 180 173 171 166 150 135 145 142 124 124 126 129 162 180 182 168 164 164 159 158 169 168 156 138 154 165 156 137 143 169 155 138 141 16 50 122 174 165 115 97 129 168 181 228 236 205 181 187 191 202 216 223 232 242 247 251 256 259 260 262 264 266 269 270 270 270 269 269 270 271 272 274 276 276 277 278 277 275 274 272 269
194 195 192 184 175 169 166 169 175 166 136 115 132 135 134 110 107 106 182 209 163 140 148 154 147 142 150 156 145 125 143 157 153 129 125 146 133 117 101 69 145 154 133 101 104 118 162 180 204 223 142 117 128 151 168 179 191 202 215 228 237 249 258 261 263 266 266 267 270 271 272 273 273 272 273 274 275 276 277 277 277 275 272 270 269 267 265
184 181 176 170 167 166 169 179 172 151 150 184 154 142 152 180 176 157 182 190 178 162 159 156 150 144 146 148 131 116 134 152 145 113 104 131 115 101 132 175 175 127 90 93 125 156 187 215 222 181 119 116 125 139 151 164 178 189 203 219 231 245 256 261 267 269 267 267 268 268 268 271 272 272 274 275 275 275 276 274 272 269 267 265 264 262 260
169 166 163 161 165 169 170 167 129 125 160 199 169 148 160 174 179 183 183 169 153 145 148 151 147 139 131 127 125 120 126 140 135 129 132 122 97 102 158 161 116 74 98 121 123 138 249 254 232 153 140 139 139 140 145 155 166 175 192 212 225 237 249 257 263 267 267 268 269 270 274 278 280 282 285 285 284 283 281 278 275 271 268 265 263 262 260
167 167 162 151 159 173 168 146 131 184 203 186 174 181 186 176 167 163 159 149 141 139 142 144 140 133 123 106 110 113 111 118 128 137 106 106 111 165 159 122 90 81 112 127 164 215 229 241 129 141 156 156 150 151 158 165 174 187 200 214 226 232 239 247 253 257 262 267 271 276 282 285 288 291 292 293 294 293 289 285 282 277 274 271 268 264 260
167 167 158 141 122 128 184 147 142 138 113 134 166 164 142 125 120 127 140 143 139 135 134 132 129 125 118 98 91 103 104 98 105 122 104 108 112 77 73 92 134 161 150 167 208 224 232 171 121 143 151 150 152 162 171 174 181 190 196 205 215 219 220 227 235 242 253 264 272 281 287 291 295 297 298 298 299 296 290 286 282 278 275 273 268 262 257
162 140 131 140 146 173 191 155 128 84 53 86 126 133 132 128 118 116 132 140 139 135 133 129 121 112 102 86 86 106 99 79 101 126 87 84 100 111 93 91 209 200 177 191 205 203 150 136 153 153 145 146 156 164 166 168 173 176 177 182 187 185 183 191 201 207 225 251 269 286 296 300 301 301 301 300 299 294 285 277 272 267 263 261 255 247 239
125 107 104 101 79 47 116 134 124 75 30 80 117 124 123 120 112 119 133 138 139 137 136 132 123 113 103 76 87 102 108 116 123 115 86 90 128 152 138 147 189 215 221 216 199 113 77 102 136 140 138 145 153 155 156 158 161 160 158 159 158 155 156 162 165 173 223 263 278 288 290 290 292 292 290 288 284 273 257 244 235 224 217 214 208 203 201
72 79 67 44 63 84 126 129 123 88 19 71 100 107 110 110 111 122 135 138 137 134 129 119 106 99 94 69 87 94 225 221 121 104 112 170 166 136 125 168 204 215 214 74 53 43 38 53 96 123 135 138 140 145 149 150 150 150 149 148 147 148 152 161 182 218 245 257 259 260 262 262 263 263 261 259 255 240 220 206 194 187 184 179 171 167 170
65 73 48 33 41 51 86 103 99 98 111 101 72 78 103 112 114 125 136 139 137 133 127 109 94 95 83 79 124 132 124 117 115 114 149 192 163 141 162 191 212 242 35 30 25 21 15 24 78 118 132 135 138 142 145 144 145 148 149 149 154 166 178 194 211 220 226 232 232 233 233 230 229 227 221 215 207 197 192 188 180 172 170 169 165 163 164
64 79 63 38 33 37 58 80 79 74 74 72 71 85 100 103 112 133 143 144 142 137 131 126 117 103 96 150 171 136 87 90 114 138 157 145 45 74 163 186 341 353 352 355 7 14 14 14 55 126 147 150 147 145 146 148 151 156 162 170 182 191 196 201 205 204 204 204 200 195 192 193 189 181 177 178 177 173 174 177 172 167 165 165 164 162 161